Regional Weather Roundup
Issued by NWS

Home | Current Version | Previous Version | Text Only | Print | Product List | Glossary Off
Versions: 1 2 3 4 5 6 7 8 9 10 11 12 13 14 15 16 17 18 19 20 21 22 23 24 25 26 27 28 29 30 31 32 33 34 35 36 37 38 39 40 41 42 43 44 45 46 47 48 49 50

000
ASUS45 KSLC 172110
RWRUT

UTAH REGIONAL WEATHER ROUNDUP
NATIONAL WEATHER SERVICE SALT LAKE CITY UT
200 PM MST WED JAN 17 2018

UTZ001>011-023>025-172200-

NORTHERN UTAH

CITY           SKY/WX    TMP DP  RH WIND       PRES   REMARKS
BRIGHAM CITY   SUNNY     46  25  45 SW6       30.35F
DUGWAY         PTSUNNY   48  30  50 S2        30.34F
HILL AFB       SUNNY     46  26  45 CALM      30.33F
LOGAN          SUNNY     47  26  44 CALM      30.34F
OGDEN          SUNNY     48  27  44 CALM      30.33F
SALT LAKE CITY PTSUNNY   53  27  36 CALM      30.33F
TOOELE VALLEY    N/A     43  32  65 N6        30.34F
WENDOVER       MOSUNNY   41  29  62 SE5       30.37F
HEBER CITY       N/A     45  21  39 CALM      30.33F
WEST JORDAN    SUNNY     47  28  47 S3        30.33F

$$

UTZ011>015-024>027-172200-

CENTRAL/NORTHEAST UTAH

CITY           SKY/WX    TMP DP  RH WIND       PRES   REMARKS
PROVO AIRPORT  MOSUNNY   43  27  53 W5        30.36F
MOAB/CANYONLAN SUNNY     43  15  32 CALM      30.35F
DELTA          SUNNY     45  32  61 CALM      30.34F
PRICE          SUNNY     42  19  39 VRB3      30.35F
RICHFIELD      SUNNY     48  28  46 CALM      30.33F
ROOSEVELT      SUNNY     39  10  30 CALM      30.41F
VERNAL         SUNNY     39  11  31 CALM      30.39F

$$

UTZ013>016-019>022-027-172200-

SOUTHERN UTAH

CITY           SKY/WX    TMP DP  RH WIND       PRES   REMARKS
BRYCE CANYON   SUNNY     47  27  45 VRB6      30.35F
CEDAR CITY     SUNNY     51  29  42 NE7       30.31F
MILFORD        SUNNY     49  33  54 N6        30.32F
ST GEORGE      CLEAR     55  30  38 CALM      30.28F
HANKSVILLE     SUNNY     46  16  29 CALM      30.39F
KANAB          SUNNY     59  23  25 E2        30.33F
BLANDING         N/A     46  20  36 CALM      30.38F

$$

REGIONAL REPORTS     COLORADO/ARIZONA

CITY           SKY/WX    TMP DP  RH WIND       PRES   REMARKS
CRAIG, CO      SUNNY     36   7  29 CALM      30.38F
GRAND JUNCTION SUNNY     42  11  28 S5        30.37F
RIFLE, CO      SUNNY     41   9  26 CALM      30.37F
MONTROSE, CO   SUNNY     40  12  32 N7        30.37F
CORTEZ, CO     SUNNY     42  21  43 SW7       30.32F
COLORADO CITY    N/A     61  30  31 NW3       30.32F
PAGE, AZ       SUNNY     50  19  29 NE6       30.33F
GRAND CANYON   SUNNY     53  21  28 NE13      30.33F
KINGMAN, AZ    SUNNY     65  32  29 N7        30.24F
FLAGSTAFF, AZ  SUNNY     49  19  30 E8        30.31F

$$

REGIONAL REPORTS    NEVADA/IDAHO/WYOMING

CITY           SKY/WX    TMP DP  RH WIND       PRES   REMARKS
LAS VEGAS, NV  MOSUNNY   65  34  31 NE5       30.24F
ELY, NY        PTSUNNY   53  27  36 NW5       30.32S
ELKO, NV       CLOUDY    41  29  62 CALM      30.34F
POCATELLO, ID  PTSUNNY   43  30  60 N7        30.36S
BURLEY, ID     PTSUNNY   44  32  62 NE13G21   30.32S
FORT BRIDGER,    N/A     45  25  45 W12       30.36F
EVANSTON, WY   SUNNY     40  27  59 S9        30.34F WCI  34
ROCK SPRINGS,  SUNNY     39  21  48 W13       30.33F WCI  31

$$



USA.gov is the U.S. government's official web portal to all federal, state and local government web resources and services.